STARLINK-34379, 64302

Orbit data source: Space-Track

STARLINK-34379, 64302 is a payload satellite owned by SpaceX/Seattle (US) in LEO that was launched on Sun, 08 Jun 2025 UTC via an FALCON 9 launch vehicle from the Air Force Western Test Range (AFWTR). Payload-class satellites include a variety of spacecraft equipped with specific instruments for various scientific and technological missions. These include communications satellites like Starlink; space stations such as the ISS; scientific satellites like the Hubble; Earth observation satellites from companies like Planet Labs, Umbra, and HawkEye 360; GPS; miniature CubeSats for education and research; and military/defense satellites.

Loading next visibility...
Identifier
64302, 2025-123M
Orbit
LEO
Country
Flag of USUS
Related business
Manufacturer
SpaceX/Seattle
Mission
Operational Commercial Communications
Bus & Motor
STARLINK V2MO, Unknown motor
Mass
575 kg wet, ~530 kg dry
Launch date (UTC)
2025-06-08 (10 months ago)
Launch vehicle
FALCON 9
Launch site
Air Force Western Test Range (AFWTR)
Object type
Payload
Rocket body
Debris
Shape & HBR
Box + 2 Pan, 17.7 m
Radar Cross Section
36.964 m², Large (>1 m²)

Expand to show TLE details & history
Last TLE update: 20 hours ago

TLE from 20 hours ago
0 STARLINK-34379
1 64302U 25123M   26093.38348923  .00050565  00000-0  11502-2 0  9990
2 64302  70.0002  98.2668 0002951 275.1950  84.8895 15.42720736 46167
Epoch: 2026-04-03T09:12Z
TLE epoch observation values (Epoch: 2026-04-03T09:12:13.469Z)
Latitude
-0.00003°
Longitude
128.49227°
Altitude
440.376 km
Speed
7.648 km/s
True Right ascension
06h 33m 04s
True Declination
0° 00' 00"
Sunlit
Object was in daylight at epoch
Visualization orbit readout
Latitude
Unknown
Longitude
Unknown
Altitude
Unknown
Speed
Unknown
Apparent Right ascension
Unknown
Apparent Declination
Unknown
Sunlit
N/A
Visualization observer readout
Local Sidereal Time
11:21:13
Azimuth
Unknown
Elevation
Unknown
Doppler factor
Unknown
Orbital elements
Apogee altitude
438.002 km
Perigee altitude
433.98 km
Semi-major axis
6,814.128 km
Eccentricity
0.0003
Inclination
70.0002°
RAAN
98.2668°
Arg. of periapsis
275.195°
True anomaly
84.92318°
Mean anomaly
84.8895°
Eccentric anomaly
84.90634°
Mean motion
3.85858 °/min
Orbital period
93.3 mins
BSTAR
0.0011502
Loading maneuver chart data...
Computing Atmospheric mass density...
Loading historical data...
Loading historical data...
Loading historical data...
Loading historical data...
Loading historical data...
Loading historical data...
Loading historical data...

Documentation

Showing up to 5 results
|